Location: Cointrin
(46.2167°N, 6.1167°E)
Time: 19:36:21
(UTC+00:00)

Cosmos 2322 - Pass Details

Date: 08 February 2023
Orbit: 841 x 854 km, 71.0° (Epoch: 21 March)

Event Time Altitude Azimuth Distance (km) Brightness Sun altitude
Rises 17:45:46 0° 189° (S) 3,406 7.1 -10.0°
Reaches altitude 10° 17:48:15 10° 184° (S) 2,475 6.3 -10.5°
Maximum altitude 17:53:45 52° 109° (ESE) 1,056 3.9 -11.4°
Drops below altitude 10° 17:59:16 10° 35° (NE) 2,492 5.7 -12.3°
Enters shadow 18:00:58 - 32° (NNE) 3,122 6.3 -12.6°
